Cheektowaga, NY

11:47 AM EDT on August 27, 2016 (GMT -0400)
Buffalo Niagara International

Weather History for KBUF - November, 2013

Change the Weather History Date:

Friday, November 8, 2013

  Actual Average Record
Temperature  
Mean Temperature 38 °F 44 °F  
Max Temperature 42 °F 51 °F 70 °F (2011)
Min Temperature 34 °F 36 °F 20 °F (1991)
Degree Days  
Heating Degree Days 27 22  
Month to date heating degree days 163 164  
Since 1 July heating degree days 668 769  
Cooling Degree Days 0 0  
Month to date cooling degree days 0 0  
Year to date cooling degree days 611 544  
Moisture  
Dew Point 28 °F    
Average Humidity 72    
Maximum Humidity 89    
Minimum Humidity 54    
Precipitation  
Precipitation 0.01 in 0.13 in 2.08 in (1947)
Month to date precipitation 0.93 1.05  
Year to date precipitation 39.09 33.63  
Snow  
Snow T in 0.10 in 5.00 in (1953)
Month to date snowfall T 1.1  
Since 1 July snowfall T 2.0  
Since 1 September snowfall T 2.0  
Snow Depth 0.00 in    
Sea Level Pressure  
Sea Level Pressure 30.14 in    
Wind  
Wind Speed 10 mph (WNW)    
Max Wind Speed 20 mph    
Max Gust Speed 25 mph    
Visibility 10 miles    
Events Rain    
T = Trace of Precipitation, MM = Missing Value Source: NWS Daily Summary

Daily Weather History Graph

Daily Weather History Graph

Search for Another Location

Airport or City:

Trip Planner

Search our weather history database for the weather conditions in past years. The results will help you decide how hot, cold, wet, or windy it might be!

Date:

Astronomy

Nov. 08, 2013 Rise Set
Actual Time 6:58 AM EST 4:58 PM EST
Civil Twilight 6:28 AM EST 5:28 PM EST
Nautical Twilight 5:54 AM EST 6:02 PM EST
Astronomical Twilight 5:21 AM EST 6:35 PM EST
Moon 11:53 AM EST (11/8) 10:17 PM EST (11/8)
Length of Visible Light 10h 59m
Length of Day
9h 59m
Waxing Crescent, 33% of the Moon is Illuminated
Nov 8
Waxing Crescent
Nov 10
First Quarter
Nov 17
Full
Nov 25
Last Quarter
Dec 2
New

Hourly Weather History & Observations

Time (EST) Temp. Windchill Dew Point Humidity Pressure Visibility Wind Dir Wind Speed Gust Speed Precip Events Conditions
12:54 AM 37.9 °F 30.0 °F 26.1 °F 62% 30.00 in 10.0 mi West 12.7 mph 21.9 mph N/A   Overcast
1:54 AM 37.9 °F 30.5 °F 27.0 °F 65% 29.99 in 10.0 mi WNW 11.5 mph - N/A   Overcast
2:54 AM 36.0 °F 28.0 °F 28.0 °F 73% 29.99 in 10.0 mi WNW 11.5 mph - N/A   Mostly Cloudy
3:54 AM 35.1 °F 27.9 °F 28.0 °F 76% 30.00 in 10.0 mi WNW 9.2 mph - N/A   Scattered Clouds
4:54 AM 35.1 °F 27.4 °F 28.9 °F 78% 30.02 in 10.0 mi West 10.4 mph - N/A   Scattered Clouds
5:54 AM 34.0 °F 26.0 °F 28.9 °F 82% 30.04 in 10.0 mi West 10.4 mph - N/A   Scattered Clouds
6:54 AM 34.0 °F 24.2 °F 28.9 °F 82% 30.06 in 10.0 mi West 15.0 mph 20.7 mph N/A   Scattered Clouds
7:54 AM 34.0 °F 26.6 °F 30.0 °F 85% 30.10 in 10.0 mi West 9.2 mph - N/A   Scattered Clouds
8:54 AM 37.0 °F 27.7 °F 30.0 °F 76% 30.12 in 10.0 mi WNW 16.1 mph 19.6 mph N/A   Scattered Clouds
9:54 AM 39.0 °F 32.8 °F 30.0 °F 70% 30.13 in 10.0 mi WNW 9.2 mph 18.4 mph N/A   Mostly Cloudy
10:54 AM 39.9 °F 32.9 °F 27.0 °F 60% 30.16 in 10.0 mi NW 11.5 mph 21.9 mph N/A   Mostly Cloudy
11:54 AM 39.9 °F 31.1 °F 25.0 °F 55% 30.16 in 10.0 mi WNW 17.3 mph 21.9 mph N/A   Mostly Cloudy
12:54 PM 39.9 °F 32.1 °F 26.1 °F 58% 30.16 in 10.0 mi WNW 13.8 mph - N/A   Mostly Cloudy
1:54 PM 39.9 °F 32.1 °F 28.0 °F 63% 30.17 in 10.0 mi WNW 13.8 mph 19.6 mph 0.00 in Rain Light Rain
2:54 PM 39.9 °F 33.9 °F 30.0 °F 68% 30.18 in 10.0 mi WNW 9.2 mph - 0.00 in Rain Light Rain
3:47 PM 39.2 °F 31.2 °F 30.2 °F 70% 30.18 in 10.0 mi NW 13.8 mph 25.3 mph 0.00 in   Small Hail
3:54 PM 39.9 °F 32.1 °F 30.0 °F 68% 30.20 in 10.0 mi NW 13.8 mph - 0.00 in   Small Hail
4:13 PM 39.2 °F 32.0 °F 28.4 °F 65% 30.18 in 10.0 mi WNW 11.5 mph - 0.01 in   Mostly Cloudy
4:54 PM 39.0 °F 32.8 °F 28.9 °F 67% 30.20 in 10.0 mi West 9.2 mph - 0.01 in   Mostly Cloudy
5:54 PM 39.0 °F 33.4 °F 28.0 °F 65% 30.22 in 10.0 mi WNW 8.1 mph - N/A   Mostly Cloudy
6:54 PM 37.9 °F 30.5 °F 27.0 °F 65% 30.24 in 10.0 mi West 11.5 mph - N/A   Overcast
7:54 PM 37.9 °F 32.7 °F 27.0 °F 65% 30.25 in 10.0 mi West 6.9 mph - N/A   Overcast
8:54 PM 39.0 °F 34.8 °F 28.0 °F 65% 30.25 in 10.0 mi West 5.8 mph - N/A   Overcast
9:54 PM 39.0 °F 35.7 °F 28.0 °F 65% 30.25 in 10.0 mi SW 4.6 mph - N/A   Overcast
10:54 PM 39.0 °F 34.8 °F 28.0 °F 65% 30.24 in 10.0 mi West 5.8 mph - N/A   Mostly Cloudy
11:54 PM 37.9 °F 34.4 °F 26.1 °F 62% 30.23 in 10.0 mi West 4.6 mph - N/A   Mostly Cloudy